Location: Elmsmere
(40.9284°N, 73.8207°W)
Time: 02:08:05
(UTC+00:00)

SeaSat 1 - Visible Passes

Search period start: 27 February 2021 00:00
Search period end: 09 March 2021 00:00
Orbit: 744 x 747 km, 108.0° (Epoch: 26 February)

Date Brightness Start Highest point End Pass type
(mag) Time Alt. Az. Time Alt. Az. Time Alt. Az.
27 Feb 4.8 00:53:43 10° N 00:57:27 22° NW 01:01:10 10° W visible
27 Feb 3.7 08:49:07 10° SE 08:53:40 39° ENE 08:57:44 13° N visible
27 Feb 3.3 10:27:02 10° SSW 10:31:13 28° WSW 10:35:26 10° NW visible
28 Feb 3.3 00:10:48 10° NNE 00:15:35 52° WNW 00:20:21 10° SW visible
28 Feb 5.0 08:08:44 10° E 08:11:53 17° NE 08:15:03 10° N visible
28 Feb 2.3 09:43:56 10° SSE 09:48:51 75° WSW 09:53:48 10° NNW visible
28 Feb 2.5 23:28:32 10° NNE 23:33:26 61° ESE 23:38:18 10° SSW visible
01 Mar 4.9 01:06:57 10° N 01:10:32 20° NW 01:14:06 10° W visible
01 Mar 3.6 09:02:08 10° SE 09:06:46 42° ENE 09:11:25 10° NNW visible
01 Mar 3.4 10:40:20 10° SSW 10:44:22 25° WSW 10:48:26 10° NW visible
02 Mar 3.4 00:23:58 10° NNE 00:28:41 47° WNW 00:33:24 10° SW visible
02 Mar 4.9 08:21:37 10° E 08:24:57 19° NE 08:28:19 10° N visible
02 Mar 2.3 09:57:05 10° SSE 10:01:59 69° WSW 10:06:55 10° NNW visible
02 Mar 2.4 23:41:39 10° NNE 23:46:35 67° ESE 23:51:28 10° SSW visible
03 Mar 5.0 01:20:12 10° N 01:23:37 19° NW 01:27:01 10° W visible
03 Mar 3.4 09:15:11 10° SE 09:19:52 46° ENE 09:24:35 10° NNW visible
03 Mar 3.6 10:53:39 10° SSW 10:57:31 23° WSW 11:01:26 10° NW visible
04 Mar 3.6 00:37:08 10° NNE 00:41:48 43° WNW 00:46:27 10° SW visible
04 Mar 4.9 08:34:31 10° E 08:38:02 20° NE 08:41:34 10° N visible
04 Mar 2.4 10:10:15 10° SSE 10:15:07 63° WSW 10:20:01 10° NNW visible
04 Mar 2.4 23:54:45 10° NNE 23:59:42 73° ESE 00:04:37 10° SSW visible
05 Mar 5.0 01:33:28 10° N 01:36:42 18° NW 01:39:54 10° W visible
05 Mar 3.3 09:28:14 10° SE 09:32:59 50° ENE 09:37:45 10° NNW visible
05 Mar 3.4 23:13:10 10° NE 23:17:20 27° ESE 23:21:28 10° SSE visible
06 Mar 3.7 00:50:18 10° NNE 00:54:54 40° WNW 00:59:29 10° SW visible
06 Mar 4.8 08:47:27 10° E 08:51:07 22° NE 08:54:49 10° N visible
06 Mar 2.5 10:23:26 10° SSE 10:28:15 57° WSW 10:33:07 10° NW visible
07 Mar 2.3 00:07:52 10° NNE 00:12:50 80° ESE 00:17:45 10° SSW visible
07 Mar 5.1 01:46:44 10° N 01:49:46 16° NW 01:52:46 10° W visible
07 Mar 3.2 09:41:18 10° SE 09:46:05 55° ENE 09:50:55 10° NNW visible
07 Mar 3.3 23:26:11 10° NE 23:30:29 29° ESE 23:34:45 10° S visible
08 Mar 3.9 01:03:29 10° N 01:08:01 37° NW 01:12:30 10° WSW visible
08 Mar 4.7 09:00:23 10° ESE 09:04:13 23° NE 09:08:02 10° N visible
08 Mar 2.6 10:36:36 10° S 10:41:24 52° WSW 10:46:13 10° NW visible
